Palm Springs, CA

12:47 AM PDT on August 25, 2016 (GMT -0700)
Palm Springs International

Weather History for KPSP - November, 2011

Change the Weather History Date:

Sunday, November 27, 2011

  Actual Average Record
Temperature  
Mean Temperature 64 °F 60 °F  
Max Temperature 78 °F 72 °F 92 °F (1954)
Min Temperature 50 °F 48 °F 34 °F (1983)
Degree Days  
Heating Degree Days 1 6  
Month to date heating degree days 109 73  
Since 1 July heating degree days 109 77  
Cooling Degree Days 0 1  
Month to date cooling degree days 17 75  
Year to date cooling degree days 4150 4137  
Growing Degree Days 14 (Base 50)    
Moisture  
Dew Point 24 °F    
Average Humidity 28    
Maximum Humidity 44    
Minimum Humidity 12    
Precipitation  
Precipitation 0.00 in 0.02 in 0.67 in (1926)
Month to date precipitation 0.42 0.46  
Year to date precipitation 2.81 4.79  
Since 1 July precipitation 1.34  
Snow  
Snow 0.00 in - - ()
Month to date snowfall 0.0  
Year to date snowfall 0.0  
Snow Depth 0.00 in    
Sea Level Pressure  
Sea Level Pressure 30.31 in    
Wind  
Wind Speed 4 mph (NNW)    
Max Wind Speed 10 mph    
Max Gust Speed 15 mph    
Visibility 10 miles    
Events      
T = Trace of Precipitation, MM = Missing Value Source: NWS Daily Summary

Daily Weather History Graph

Daily Weather History Graph

Search for Another Location

Airport or City:

Trip Planner

Search our weather history database for the weather conditions in past years. The results will help you decide how hot, cold, wet, or windy it might be!

Date:

Astronomy

Nov. 27, 2011 Rise Set
Actual Time 6:29 AM PST 4:37 PM PST
Civil Twilight 6:02 AM PST 5:04 PM PST
Nautical Twilight 5:31 AM PST 5:35 PM PST
Astronomical Twilight 5:01 AM PST 6:05 PM PST
Moon 8:56 AM PST (11/27) 7:21 PM PST (11/27)
Length of Visible Light 11h 02m
Length of Day
10h 08m
Waxing Crescent, 9% of the Moon is Illuminated
Nov 27
Waxing Crescent
Dec 2
First Quarter
Dec 10
Full
Dec 17
Last Quarter
Dec 24
New

Hourly Weather History & Observations

Time (PST) Temp. Dew Point Humidity Pressure Visibility Wind Dir Wind Speed Gust Speed Precip Events Conditions
12:53 AM 55.9 °F 23.0 °F 28% 30.32 in 10.0 mi NW 3.5 mph - N/A   Clear
1:53 AM 57.0 °F 24.1 °F 28% 30.32 in 10.0 mi NW 3.5 mph - N/A   Clear
2:53 AM 55.9 °F 21.9 °F 27% 30.31 in 10.0 mi WNW 3.5 mph - N/A   Clear
3:53 AM 57.0 °F 18.0 °F 22% 30.31 in 10.0 mi NNW 4.6 mph - N/A   Clear
4:53 AM 52.0 °F 21.9 °F 31% 30.32 in 10.0 mi North 5.8 mph - N/A   Clear
5:53 AM 54.0 °F 21.0 °F 28% 30.33 in 10.0 mi NW 4.6 mph - N/A   Clear
6:53 AM 51.8 °F 30.2 °F 44% 30.36 in 10.0 mi Calm Calm - N/A   Partly Cloudy
7:53 AM 60.1 °F 24.1 °F 25% 30.38 in 10.0 mi NW 4.6 mph - N/A   Clear
8:53 AM 66.9 °F 24.1 °F 20% 30.39 in 10.0 mi Calm Calm - N/A   Clear
9:53 AM 71.1 °F 17.1 °F 13% 30.40 in 10.0 mi Calm Calm - N/A   Clear
10:53 AM 73.0 °F 19.0 °F 13% 30.38 in 10.0 mi Calm Calm - N/A   Clear
11:53 AM 75.0 °F 19.9 °F 13% 30.34 in 10.0 mi ESE 4.6 mph - N/A   Clear
12:53 PM 77.0 °F 21.9 °F 13% 30.31 in 10.0 mi ESE 6.9 mph - N/A   Clear
1:53 PM 77.0 °F 24.1 °F 14% 30.30 in 10.0 mi East 6.9 mph - N/A   Clear
2:53 PM 75.9 °F 23.0 °F 14% 30.28 in 10.0 mi ESE 5.8 mph - N/A   Clear
3:53 PM 75.0 °F 21.0 °F 13% 30.28 in 10.0 mi Calm Calm - N/A   Clear
4:53 PM 69.1 °F 30.9 °F 24% 30.28 in 10.0 mi Calm Calm - N/A   Clear
5:53 PM 66.0 °F 30.9 °F 27% 30.28 in 10.0 mi NNW 5.8 mph - N/A   Clear
6:53 PM 63.0 °F 25.0 °F 24% 30.28 in 10.0 mi NW 6.9 mph - N/A   Clear
7:53 PM 62.1 °F 25.0 °F 24% 30.27 in 10.0 mi NW 4.6 mph - N/A   Clear
8:53 PM 60.1 °F 28.9 °F 31% 30.27 in 10.0 mi NW 4.6 mph - N/A   Clear
9:53 PM 55.9 °F 28.9 °F 36% 30.27 in 10.0 mi NNW 6.9 mph - N/A   Clear
10:53 PM 57.0 °F 23.0 °F 27% 30.26 in 10.0 mi NNW 8.1 mph - N/A   Clear
11:53 PM 54.0 °F 28.0 °F 37% 30.25 in 10.0 mi NW 6.9 mph - N/A   Clear